Regional Weather Roundup
Issued by NWS Upton, NY

Current Version | Previous Version | Text Only | Print | Product List | Glossary On
Versions: 1 2 3 4 5 6 7 8 9 10 11 12 13 14 15 16 17 18 19 20 21 22 23 24 25 26 27
000
ASUS41 KOKX 240009
RWROKX

REGIONAL WEATHER ROUNDUP
NATIONAL WEATHER SERVICE NEW YORK NY
800 PM EDT FRI JUN 23 2017

NOTE: "FAIR" INDICATES FEW OR NO CLOUDS BELOW 12,000 FEET WITH NO
SIGNIFICANT WEATHER AND/OR OBSTRUCTIONS TO VISIBILITY.

NYZ071-072-176-178-NJZ106-104-240100-
NEW YORK CITY METRO AREA

CITY           SKY/WX    TMP DP  RH WIND       PRES   REMARKS
Central Park   CLOUDY    81  73  76 CALM      29.67S
Bronx Bot Gard   N/A     77  70  78 SE3       29.65F
LaGuardia APRT LGT RAIN  80  72  76 S7        29.63S
Kennedy INTL   CLOUDY    73  71  93 S16       29.66R
Breezy Point     N/A     68 N/A N/A S13G18      N/A
Newark/Liberty TSTM      83  73  72 S13G20    29.63S
Teterboro      CLOUDY    83  75  77 SW6       29.62S HX  90
$$

NYZ177-179-078>081-240100-
LONG ISLAND NEW YORK

CITY           SKY/WX    TMP DP  RH WIND       PRES   REMARKS
Jones Beach      N/A     68 N/A N/A S14G20      N/A
Matinecock PT  NOT AVBL
Farmingdale    NOT AVBL
MacArthur/ISP  CLOUDY    75  71  87 SW17      29.67R
Shirley        CLOUDY    73  71  93 S14G22    29.67F
Mt Sinai Harb    N/A    N/A N/A N/A S10G17      N/A
Westhampton    CLOUDY    71  67  87 SW9G20    29.70S
East Hampton   CLOUDY    70  67  92 SW10G16   29.68S
Montauk          N/A     70  68  93 SW9G18    29.69F
$$

NYZ052-065-067-240100-
HUDSON VALLEY

CITY           SKY/WX    TMP DP  RH WIND       PRES   REMARKS
White Plains   NOT AVBL
Larchmont Harb   N/A     72 N/A N/A S7          N/A
Croton O-T Hud   N/A     79 N/A N/A S3          N/A
Newburgh       MOCLDY    79  73  83 SW6       29.65R
Montgomery     LGT RAIN  79  73  82 S10       29.62S
Poughkeepsie   CLOUDY    81  70  69 VRB6      29.60F
Albany         MOCLDY    77  70  79 S9        29.57R
$$

NJZ001-105-106-008-010-013-015-019>022-104-240100-
NEW JERSEY

CITY           SKY/WX    TMP DP  RH WIND       PRES   REMARKS
Newark/Liberty TSTM      83  73  72 S13G20    29.63S
Teterboro      CLOUDY    83  75  77 SW6       29.62S HX  90
Caldwell       LGT RAIN  80  75  84 W3        29.65S
Somerville     CLOUDY    76  75  97 CALM      29.63F
Linden         FAIR      85  71  62 SW5       29.64S
Perth Amboy      N/A     84 N/A N/A SW15        N/A
Sussex         MOCLDY    75  74  96 SW3       29.64S
Andover          N/A     73  71  93 CALM      29.65F
Trenton        LGT RAIN  82  73  74 SW20G26   29.66R
Millville      CLEAR     83  77  82 VRB5      29.69S HX  92
Atlantic City  NOT AVBL
Wrightstown    NOT AVBL
Toms River     CLOUDY    83  73  72 SW13      29.68F
Belmar         CLOUDY    83  73  72 S14G24    29.66F
$$

PAZ047>061-062-071-240100-
EASTERN PENNSYLVANIA

CITY           SKY/WX    TMP DP  RH WIND       PRES   REMARKS
Philadelphia   MOCLDY    84  72  67 SW16G24   29.67S
Allentown      MOCLDY    78  73  84 S6        29.64F
Scranton       CLOUDY    80  70  71 SW12      29.63R
$$

CTZ002-004>006-009-010-012-RIZ004-006-007-MAZ004-011-015-240100-
SOUTHERN NEW ENGLAND
 IN CT

CITY           SKY/WX    TMP DP  RH WIND       PRES   REMARKS
Bradley INTL   MOCLDY    79  71  76 S10       29.61F
Hartford       MOCLDY    78  71  79 S10       29.62S
Danbury        MOCLDY    80  72  76 S8        29.65F
Wtrbury/Oxford MOCLDY    75  68  78 SW9       29.67S
Bridgeport     PTCLDY    77  69  76 S14       29.63F
Meriden        CLOUDY    76  70  82 S10       29.64S
New Haven      PTCLDY    75  70  83 S10       29.65S
Chester        FAIR      73  72  94 S8G15     29.67S
Groton         MOCLDY    70  68  93 SW9       29.66F
Wilimantic     MOCLDY    79  71  76 S9        29.64F

 IN RI

CITY           SKY/WX    TMP DP  RH WIND       PRES   REMARKS
Providence     CLOUDY    74  70  87 SW15G21   29.66S
Block Island   CLOUDY    68  65  90 SW15      29.69F
Westerly       CLOUDY    72  68  87 SW13G18   29.68F
 IN MA

CITY           SKY/WX    TMP DP  RH WIND       PRES   REMARKS
Boston         MOCLDY    77  69  76 SW16G26   29.60F
Worcester      CLOUDY    73  68  84 SW16      29.64F
Westfield      MOCLDY    79  70  73 MISG      29.60S
Provincetown   CLOUDY    69  65  86 SW18G25   29.66F
Nantucket      CLOUDY    65  64  97 S15       29.73S
$$

ANZ330-335-338-340-345-350-353-355-240100-
COASTAL MARINE OBSERVATIONS


STATION/POSITION TIME  SKY/WX   TEMP    WIND        PRES    VSBY  WAVE
                                AIR SEA DIR/SP/G                  HT/PER
                 (UTC)          (F)     (DEG/KT/KT) (MB)    (MI)  (FT/S)
NY HARB ENTRANCE 2350            68 66  200/ 17/ 21 1003.9          5/ 6
20 S FIRE ISLAND 2350            71 69  210/ 19/ 25 1004.1          6/ 6
GREAT SOUTH BAY  2315            72 76  220/ 17/ 23   N/A
23 SSW MONTAUK P 2250            68 64              1005.9          5/ 5
15 E BARNEGAT LI 2330               64                N/A           6/ 6
HUDSON CANYON    2350            71 67  210/ 19/ 21 1006.6          6/ 6
KINGS POINT      2324            74 66  210/ 11/ 12 1003.6
EXECUTION ROCKS  2345            75     170/  8/ 12   N/A
CENTRAL LI SOUND 2245            74     200/ 14/ 16   N/A           2
EASTERN LI SOUND NOT AVBL
ROBBINS REEF     2330                   200/ 10/ 13 1004.1
$$


>>>>>>>>>>>>>>>>>>>>>>>>>>>> KEY <<<<<<<<<<<<<<<<<<<<<<<<<<<
>                                                          <
>     SKY/WX - Sky Condition/Present Weather               <
>     TMP    - Temperature in Fahrenheit                   <
>     DP     - Dew Point in Fahrenheit                     <
>     RH     - Relative Humidity in Percent                <
>     WIND   - Direction (from) and Speed in MPH           <
>     PRES   - Mean Sea Level Pressure (inches of Hg)      <
>     WCI    - Wind Chill Index                            <
>     VSB    - VISIBILITY IN MILES                         <
>     HX     - HEAT INDEX                                  <
>     TC     - TEMPERATURE IN CELSIUS                      <
>     VRB    - VARIABLE WIND DIRECTION                     <
>                                                          <
>>>>>>>>>>>>>>>>>>>>>>>>>>>> KEY <<<<<<<<<<<<<<<<<<<<<<<<<<<




USA.gov is the U.S. government's official web portal to all federal, state and local government web resources and services.